Location: Newark
(45.5000°N, 11.4167°E)
Time: 15:53:56
(UTC+00:00)

Transit 2A Rocket - Pass Details

Date: 29 August 2019
Orbit: 594 x 910 km, 66.7° (Epoch: 17 October)

Event Time Altitude Azimuth Distance (km) Brightness Sun altitude
Rises 16:21:43 0° 198° (SSW) 3,440 8.7 16.0°
Reaches altitude 10° 16:24:18 10° 194° (SSW) 2,470 7.9 15.5°
Maximum altitude 16:29:52 56° 117° (ESE) 953 5.4 14.6°
Drops below altitude 10° 16:35:00 10° 41° (NE) 2,285 7.1 13.7°
Sets 16:37:19 0° 37° (NE) 3,162 7.8 13.3°
